Regional Weather Roundup
Issued by NWS

Home | Current Version | Previous Version | Graphics & Text | Print | Product List | Glossary On
Versions: 1 2 3 4 5 6 7 8 9 10 11 12 13 14 15 16 17 18 19 20 21 22 23 24 25 26 27 28 29 30 31 32 33 34 35 36 37 38 39 40 41 42 43 44 45 46 47 48 49 50
000
ASUS44 KMEG 260110
RWRTN
TENNESSEE HOURLY STATE WEATHER ROUNDUP
NATIONAL WEATHER SERVICE MEMPHIS TN
800 PM CDT TUE JUL 25 2017

TNZ002-004-019-021-049-052-054-088>092-260200-
WEST TENNESSEE

CITY           SKY/WX    TMP DP  RH WIND       PRES   REMARKS
MEMPHIS INTL   CLOUDY    88  77  69 S10       30.04F HX 100
NWS MEMPHIS      N/A     88 N/A N/A MISG        N/A
JACKSON        PTCLDY    84  78  82 S6        30.05R HX  95
COVINGTON      CLEAR     86  77  74 CALM      30.03F HX  97
UNION CITY     CLEAR     84  79  84 E5        30.04S HX  96
BOLIVAR        CLEAR     82  73  74 CALM      30.06R
PARIS          PTCLDY    84  79  84 NE5       30.06R HX  96
HUNTINGDON     CLEAR     84  81  89 CALM      30.05R HX  98
LEXINGTON      PTCLDY    84  81  89 CALM      30.06R HX  98
SELMER         CLEAR     82  75  78 CALM      30.07R
SAVANNAH       CLEAR     84  77  79 CALM      30.05S HX  94
$$

TNZ008-025-027-028-033-062-065-066-260200-
NORTH MIDDLE TENNESSEE

CITY           SKY/WX    TMP DP  RH WIND       PRES   REMARKS
NASHVILLE      MOCLDY    85  74  69 E9        30.07F HX  92
PORTLAND         N/A     82  73  74 CALM      30.08R
CLARKSVILLE    CLOUDY    83  73  72 N3        30.08R
SMYRNA         PTCLDY    82  74  76 NE6       30.08S
COOKEVILLE     CLEAR     79  73  83 CALM      30.10S
GALLATIN       PTCLDY    84  75  74 S6        30.10R HX  92
CROSSVILLE     CLEAR     79  66  64 CALM      30.17R
$$

TNZ061-075-076-078-094-096-097-260200-
SOUTH MIDDLE TENNESSEE

CITY           SKY/WX    TMP DP  RH WIND       PRES   REMARKS
FAYETTEVILLE   CLEAR     81  72  74 CALM      30.10R
TULLAHOMA      PTCLDY    82  70  65 CALM      30.12R
WINCHESTER     CLEAR     79  72  78 CALM      30.11R
MCMINNVILLE    CLEAR     81  77  89 CALM      30.11R
COLUMBIA       CLEAR     84  75  74 SE3       30.05R HX  92
SHELBYVILLE    MOCLDY    81  75  83 SW7       30.10R
$$

TNZ017-018-042-046-047-260200-
NORTHEAST TENNESSEE

CITY           SKY/WX    TMP DP  RH WIND       PRES   REMARKS
TRI CITIES     PTCLDY    79  66  64 N3        30.14R
ELIZABETHTON   CLEAR     77  68  73 CALM      30.15R
$$

TNZ012-013-036-069-073-074-260200-
CENTRAL EAST TENNESSEE

CITY           SKY/WX    TMP DP  RH WIND       PRES   REMARKS
KNOXVILLE      PTCLDY    85  64  49 N7        30.10R
OAK RIDGE      CLEAR     83  67  58 CALM      30.12R
DOWNTOWN KNOXV CLEAR     77  72  83 CALM      30.09S
GATLINBURG     CLEAR     82  63  51 CALM      30.11R
MORRISTOWN     PTCLDY    82  70  65 N3        30.12R
JACKSBORO      CLEAR     77  66  69 CALM      30.15R
$$

TNZ083-085-099-260200-
SOUTHEAST TENNESSEE

CITY           SKY/WX    TMP DP  RH WIND       PRES   REMARKS
CHATTANOOGA    CLOUDY    84  71  65 CALM      30.09R
DAYTON         MOCLDY    82  77  83 CALM      30.08R HX  91
$$

SKY/WX REPORTED AS FAIR MEANS FEW OR NO CLOUDS BELOW
12 THOUSAND FEET.





USA.gov is the U.S. government's official web portal to all federal, state and local government web resources and services.